Location: Burland Observatory
(39.4088°N, 105.4217°W)
Time: 18:40:15
(UTC-07:00)

deb Explorer IX - All Passes

Search period start: 13 December 2019 00:00
Search period end: 23 December 2019 00:00
Orbit: 546 x 1104 km, 38.8° (Epoch: 12 December)

Date Brightness Start Highest point End Pass type
(mag) Time Alt. Az. Time Alt. Az. Time Alt. Az.
13 Dec - 13:13:42 10° S 13:16:15 14° SE 13:18:58 10° ESE daylight
13 Dec - 14:57:22 10° SW 15:02:19 49° SSE 15:08:09 10° E daylight
13 Dec - 16:43:38 10° W 16:49:19 84° S 16:56:00 10° E daylight
13 Dec - 18:30:29 10° W 18:36:41 74° SSW 18:43:45 10° ESE visible
13 Dec - 20:17:43 10° W 20:23:50 38° SSW 20:30:25 10° SE visible
13 Dec - 22:07:43 10° WSW 22:10:21 12° SW 22:13:01 10° SSW night (unlit)
14 Dec - 12:51:48 10° S 12:54:12 14° SE 12:56:45 10° ESE daylight
14 Dec - 14:35:27 10° SW 14:40:15 48° SSE 14:45:55 10° E daylight
14 Dec - 16:21:42 10° W 16:27:13 84° S 16:33:44 10° E daylight
14 Dec - 18:08:29 10° W 18:14:32 73° SSW 18:21:28 10° ESE visible
14 Dec - 19:55:40 10° W 20:01:38 37° SSW 20:08:07 10° SE visible
14 Dec - 21:45:50 10° WSW 21:48:10 12° SW 21:50:32 10° SSW visible
15 Dec - 12:29:54 10° S 12:32:09 13° SE 12:34:33 10° ESE daylight
15 Dec - 14:13:32 10° SW 14:18:12 48° SSE 14:23:40 10° E daylight
15 Dec - 15:59:46 10° W 16:05:07 84° S 16:11:28 10° E daylight
15 Dec - 17:46:31 10° W 17:52:23 73° SSW 17:59:11 10° ESE visible
15 Dec - 19:33:40 10° W 19:39:26 36° SSW 19:45:49 10° SE visible
15 Dec - 21:24:04 10° WSW 21:25:58 11° SW 21:27:55 10° SSW visible
16 Dec - 12:07:59 10° S 12:10:07 13° SE 12:12:21 10° ESE daylight
16 Dec - 13:51:37 10° SW 13:56:09 48° SSE 14:01:28 10° E daylight
16 Dec - 15:37:51 10° W 15:43:02 84° S 15:49:12 10° E daylight
16 Dec - 17:24:33 10° W 17:30:15 71° SSW 17:36:54 10° ESE visible
16 Dec - 19:11:39 10° W 19:17:16 35° SSW 19:23:29 10° SE visible
16 Dec - 21:02:27 10° SW 21:03:48 11° SW 21:05:09 10° SSW visible
17 Dec - 11:46:04 10° SSE 11:48:05 13° SE 11:50:12 10° ESE daylight
17 Dec - 13:29:42 10° SW 13:34:07 48° SSE 13:39:15 10° E daylight
17 Dec - 15:15:56 10° W 15:20:58 84° S 15:26:57 10° E daylight
17 Dec - 17:02:36 10° W 17:08:07 70° SSW 17:14:37 10° ESE visible
17 Dec - 18:49:41 10° W 18:55:06 34° SSW 19:01:10 10° SSE visible
18 Dec - 11:24:07 10° SSE 11:26:03 13° SE 11:28:04 10° ESE daylight
18 Dec - 13:07:47 10° SW 13:12:06 47° SSE 13:17:04 10° E daylight
18 Dec - 14:54:01 10° W 14:58:54 84° S 15:04:42 10° E daylight
18 Dec - 16:40:39 10° W 16:46:00 69° SSW 16:52:20 10° ESE daylight
18 Dec - 18:27:43 10° W 18:32:57 32° SSW 18:38:49 10° SSE visible
19 Dec - 11:02:10 10° SSE 11:04:01 13° SE 11:05:58 10° ESE daylight
19 Dec - 12:45:53 10° SW 12:50:04 47° SSE 12:54:53 10° E daylight
19 Dec - 14:32:07 10° W 14:36:51 84° S 14:42:28 10° E daylight
19 Dec - 16:18:43 10° W 16:23:55 68° SSW 16:30:03 10° ESE daylight
19 Dec - 18:05:46 10° W 18:10:48 31° SSW 18:16:28 10° SSE visible
20 Dec - 10:40:11 10° S 10:42:01 13° SE 10:43:53 10° ESE daylight
20 Dec - 12:23:57 10° SW 12:28:04 47° SSE 12:32:43 10° E daylight
20 Dec - 14:10:12 10° W 14:14:49 84° S 14:20:14 10° E daylight
20 Dec - 15:56:47 10° W 16:01:49 66° SSW 16:07:46 10° ESE daylight
20 Dec - 17:43:49 10° W 17:48:40 30° SSW 17:54:08 10° SSE visible
21 Dec - 10:18:10 10° S 10:19:58 13° SE 10:21:51 10° ESE daylight
21 Dec - 12:02:01 10° SW 12:06:03 47° SSE 12:10:34 10° E daylight
21 Dec - 13:48:17 10° W 13:52:47 84° S 13:58:01 10° E daylight
21 Dec - 15:34:52 10° W 15:39:44 65° SSW 15:45:30 10° ESE daylight
21 Dec - 17:21:54 10° W 17:26:32 28° SSW 17:31:46 10° SSE visible
22 Dec - 09:56:06 10° S 09:57:58 13° SE 09:59:51 10° ESE daylight
22 Dec - 11:40:04 10° SW 11:44:03 47° SSE 11:48:27 10° E daylight
22 Dec - 13:26:22 10° W 13:30:45 84° S 13:35:50 10° E daylight
22 Dec - 15:12:57 10° W 15:17:41 63° SSW 15:23:14 10° ESE daylight
22 Dec - 17:00:01 10° W 17:04:25 27° SSW 17:09:25 10° SSE visible
